When you browse on this site, cookies collect data to enhance your experience and personalize the content and advertising you see.
Visit our Privacy Policy to learn more. By continuing to use the site, you agree to this use of cookies and data.
  • In Hungary
  • List of Countries
  • For 7 days
  • Water Temperature
  • Satellite Maps
  • Weather Map
  • News
  • Weather Widgets
  • user-avatar
    Login

    Hourly Weather Zaglebocze

    Today, 18 January, Friday

    Time Temperature Precipitation Wind Pressure Humidity
    00:00 +1°C° 0.1 mm 4 mps 725 mmHg 87%
    01:00 +1°C° 0 mm 4 mps 725 mmHg 90%
    02:00 +1°C° 0.1 mm 4 mps 725 mmHg 90%
    03:00 +1°C° 0.1 mm 4 mps 726 mmHg 90%
    04:00 0°C° 0.1 mm 4 mps 726 mmHg 90%
    05:00 0°C° 0.1 mm 4 mps 726 mmHg 89%
    06:00 -1°C° 0.1 mm 4 mps 727 mmHg 88%
    07:00 -1°C° 0.1 mm 4 mps 727 mmHg 88%
    08:00 -1°C° 0 mm 4 mps 728 mmHg 86%
    09:00 -1°C° 0 mm 4 mps 728 mmHg 84%
    10:00 -1°C° 0 mm 4 mps 728 mmHg 83%
    11:00 -1°C° 0.1 mm 4 mps 729 mmHg 82%
    12:00 -1°C° 0.1 mm 4 mps 729 mmHg 82%
    13:00 -1°C° 0.1 mm 5 mps 730 mmHg 81%
    14:00 -2°C° 0.2 mm 4 mps 731 mmHg 82%
    15:00 -3°C° 0.2 mm 4 mps 731 mmHg 84%
    16:00 -2°C° 0.2 mm 3 mps 732 mmHg 85%
    17:00 -4°C° 0 mm 3 mps 732 mmHg 86%
    18:00 -4°C° 0 mm 2 mps 733 mmHg 87%
    19:00 -5°C° 0 mm 2 mps 734 mmHg 88%
    20:00 -5°C° 0 mm 2 mps 734 mmHg 88%
    21:00 -3°C° 0 mm 1 mps 735 mmHg 89%
    22:00 -3°C° 0 mm 1 mps 735 mmHg 89%
    23:00 -4°C° 0 mm 1 mps 735 mmHg 90%

    Tomorrow, 19 January, Saturday

    Time Temperature Precipitation Wind Pressure Humidity
    00:00 -4°C° 0 mm 1 mps 736 mmHg 90%
    01:00 -6°C° 0 mm 1 mps 736 mmHg 90%
    02:00 -6°C° 0 mm 1 mps 736 mmHg 89%
    03:00 -8°C° 0 mm 2 mps 736 mmHg 89%
    04:00 -8°C° 0 mm 2 mps 736 mmHg 88%
    05:00 -8°C° 0 mm 2 mps 736 mmHg 86%
    06:00 -8°C° 0 mm 2 mps 736 mmHg 85%
    07:00 -8°C° 0 mm 2 mps 736 mmHg 83%
    08:00 -7°C° 0 mm 2 mps 736 mmHg 79%
    09:00 -4°C° 0 mm 1 mps 736 mmHg 76%
    10:00 -3°C° 0 mm 1 mps 736 mmHg 73%
    11:00 -2°C° 0 mm 1 mps 736 mmHg 70%
    12:00 -1°C° 0 mm 1 mps 736 mmHg 67%
    13:00 0°C° 0 mm 1 mps 736 mmHg 64%
    14:00 -1°C° 0 mm 1 mps 735 mmHg 69%
    15:00 -2°C° 0 mm 1 mps 735 mmHg 73%
    16:00 -3°C° 0 mm 1 mps 735 mmHg 78%
    17:00 -3°C° 0 mm 1 mps 735 mmHg 79%
    18:00 -4°C° 0 mm 1 mps 734 mmHg 80%
    19:00 -4°C° 0 mm 1 mps 734 mmHg 82%
    20:00 -4°C° 0 mm 1 mps 734 mmHg 82%
    21:00 -4°C° 0 mm 1 mps 734 mmHg 82%
    22:00 -4°C° 0 mm 1 mps 734 mmHg 83%
    23:00 -4°C° 0 mm 1 mps 734 mmHg 82%

    Day after tomorrow, 20 January, Sunday

    Time Temperature Precipitation Wind Pressure Humidity
    00:00 -4°C° 0 mm 1 mps 733 mmHg 82%
    01:00 -4°C° 0 mm 1 mps 733 mmHg 82%
    02:00 -4°C° 0 mm 1 mps 733 mmHg 81%
    03:00 -3°C° 0 mm 1 mps 732 mmHg 81%
    04:00 -3°C° 0 mm 1 mps 732 mmHg 81%
    05:00 -3°C° 0 mm 1 mps 732 mmHg 81%
    06:00 -4°C° 0 mm 0 mps 732 mmHg 82%
    07:00 -4°C° 0 mm 0 mps 732 mmHg 83%
    08:00 -3°C° 0 mm 0 mps 732 mmHg 81%
    09:00 -3°C° 0 mm 0 mps 732 mmHg 79%
    10:00 -2°C° 0 mm 0 mps 732 mmHg 78%
    11:00 -2°C° 0 mm 0 mps 732 mmHg 75%
    12:00 0°C° 0 mm 1 mps 732 mmHg 73%
    13:00 0°C° 0 mm 1 mps 732 mmHg 71%
    14:00 -1°C° 0 mm 1 mps 732 mmHg 74%
    15:00 -2°C° 0 mm 1 mps 732 mmHg 77%
    16:00 -2°C° 0 mm 1 mps 732 mmHg 80%
    17:00 -4°C° 0 mm 0 mps 732 mmHg 81%
    18:00 -5°C° 0 mm 0 mps 733 mmHg 82%
    19:00 -6°C° 0 mm 0 mps 733 mmHg 83%
    20:00 -6°C° 0 mm 0 mps 733 mmHg 83%
    21:00 -6°C° 0 mm 0 mps 734 mmHg 83%
    22:00 -6°C° 0 mm 0 mps 734 mmHg 82%
    23:00 -6°C° 0 mm 0 mps 735 mmHg 83%

    21 January, Monday

    Time Temperature Precipitation Wind Pressure Humidity
    00:00 -7°C° 0 mm 1 mps 735 mmHg 83%
    01:00 -7°C° 0 mm 1 mps 735 mmHg 83%
    02:00 -7°C° 0 mm 1 mps 736 mmHg 83%
    03:00 -7°C° 0 mm 1 mps 736 mmHg 83%
    04:00 -7°C° 0 mm 1 mps 736 mmHg 84%
    05:00 -7°C° 0 mm 1 mps 736 mmHg 84%
    06:00 -6°C° 0 mm 1 mps 737 mmHg 84%
    07:00 -6°C° 0 mm 1 mps 737 mmHg 85%
    08:00 -4°C° 0 mm 1 mps 737 mmHg 85%
    09:00 -3°C° 0 mm 1 mps 738 mmHg 85%
    10:00 -2°C° 0 mm 1 mps 738 mmHg 85%
    11:00 -1°C° 0 mm 1 mps 738 mmHg 85%
    12:00 -1°C° 0 mm 1 mps 738 mmHg 84%
    13:00 0°C° 0 mm 1 mps 738 mmHg 84%
    14:00 -1°C° 0 mm 1 mps 738 mmHg 87%
    15:00 -2°C° 0 mm 0 mps 738 mmHg 89%
    16:00 -3°C° 0 mm 0 mps 738 mmHg 91%
    17:00 -3°C° 0 mm 1 mps 738 mmHg 91%
    18:00 -3°C° 0 mm 1 mps 738 mmHg 91%
    19:00 -4°C° 0 mm 1 mps 738 mmHg 91%
    20:00 -4°C° 0 mm 1 mps 738 mmHg 89%
    21:00 -6°C° 0 mm 1 mps 738 mmHg 88%
    22:00 -7°C° 0 mm 2 mps 738 mmHg 86%
    23:00 -7°C° 0 mm 2 mps 737 mmHg 85%

    22 January, Tuesday

    Time Temperature Precipitation Wind Pressure Humidity
    00:00 -8°C° 0 mm 2 mps 737 mmHg 84%
    01:00 -8°C° 0 mm 2 mps 737 mmHg 83%
    02:00 -8°C° 0 mm 2 mps 736 mmHg 83%
    03:00 -8°C° 0 mm 2 mps 736 mmHg 84%
    04:00 -8°C° 0 mm 2 mps 735 mmHg 84%
    05:00 -8°C° 0 mm 2 mps 735 mmHg 84%
    06:00 -8°C° 0 mm 2 mps 734 mmHg 84%
    07:00 -8°C° 0 mm 2 mps 734 mmHg 83%
    08:00 -7°C° 0 mm 2 mps 734 mmHg 82%
    09:00 -6°C° 0 mm 2 mps 733 mmHg 80%
    10:00 -6°C° 0 mm 3 mps 733 mmHg 78%
    11:00 -5°C° 0 mm 3 mps 732 mmHg 76%
    12:00 -2°C° 0 mm 2 mps 731 mmHg 74%
    13:00 -1°C° 0 mm 2 mps 730 mmHg 72%
    14:00 -2°C° 0 mm 2 mps 730 mmHg 76%
    15:00 -3°C° 0 mm 2 mps 729 mmHg 79%
    16:00 -4°C° 0 mm 2 mps 728 mmHg 82%
    17:00 -5°C° 0 mm 2 mps 727 mmHg 83%
    18:00 -6°C° 0 mm 2 mps 727 mmHg 84%
    19:00 -7°C° 0 mm 2 mps 726 mmHg 84%
    20:00 -7°C° 0 mm 2 mps 725 mmHg 82%
    21:00 -8°C° 0 mm 2 mps 725 mmHg 80%
    22:00 -8°C° 0 mm 2 mps 724 mmHg 78%
    23:00 -7°C° 0 mm 2 mps 723 mmHg 78%

    23 January, Wednesday

    Time Temperature Precipitation Wind Pressure Humidity
    00:00 -7°C° 0 mm 2 mps 723 mmHg 78%
    01:00 -4°C° 0 mm 1 mps 722 mmHg 78%
    02:00 -4°C° 0 mm 1 mps 721 mmHg 80%
    03:00 -4°C° 0 mm 1 mps 721 mmHg 82%
    04:00 -3°C° 0 mm 1 mps 720 mmHg 84%
    05:00 -3°C° 0.1 mm 1 mps 720 mmHg 85%
    06:00 -3°C° 0.1 mm 1 mps 720 mmHg 87%
    07:00 -3°C° 0.1 mm 1 mps 719 mmHg 88%
    08:00 -2°C° 0.1 mm 1 mps 719 mmHg 88%
    09:00 -1°C° 0.1 mm 1 mps 719 mmHg 87%
    10:00 0°C° 0.1 mm 1 mps 719 mmHg 86%
    11:00 0°C° 0 mm 1 mps 718 mmHg 87%
    12:00 +1°C° 0 mm 1 mps 718 mmHg 88%
    13:00 +2°C° 0 mm 1 mps 717 mmHg 89%
    14:00 +2°C° 0 mm 1 mps 717 mmHg 91%
    15:00 +1°C° 0 mm 1 mps 716 mmHg 92%
    16:00 -1°C° 0 mm 2 mps 716 mmHg 94%
    17:00 -2°C° 0 mm 2 mps 716 mmHg 94%
    18:00 -2°C° 0 mm 2 mps 715 mmHg 94%
    19:00 -3°C° 0 mm 2 mps 715 mmHg 93%
    20:00 -2°C° 0 mm 2 mps 715 mmHg 93%
    21:00 -2°C° 0 mm 2 mps 715 mmHg 92%
    22:00 -2°C° 0 mm 2 mps 714 mmHg 91%
    23:00 -1°C° 0 mm 2 mps 714 mmHg 90%
    Show more